Time,TemperatureF,DewpointF,PressureIn,WindDirection,WindDirectionDegrees,WindSpeedMPH,WindSpeedGustMPH,Humidity,HourlyPrecipIn,Conditions,Clouds,dailyrainin,SoftwareType,DateUTC
2013-02-09 00:14:00,31.6,29.0,30.30,ENE,75,0.0,0.0,90,0.00,,,0.00,VWS V14.01,2013-02-09 06:14:00,
2013-02-09 00:29:00,31.8,29.5,30.29,NE,54,0.0,0.0,91,0.00,,,0.00,VWS V14.01,2013-02-09 06:29:00,
2013-02-09 00:44:00,32.9,30.3,30.28,East,89,1.1,3.4,90,0.00,,,0.00,VWS V14.01,2013-02-09 06:44:00,
2013-02-09 00:59:00,33.4,30.5,30.29,East,86,1.1,4.6,89,0.00,,,0.00,VWS V14.01,2013-02-09 06:59:00,
2013-02-09 01:14:00,33.8,30.6,30.28,ENE,75,1.1,4.6,88,0.00,,,0.00,VWS V14.01,2013-02-09 07:14:00,
2013-02-09 01:29:00,33.9,30.7,30.28,NNE,18,3.4,5.8,88,0.00,,,0.00,VWS V14.01,2013-02-09 07:29:00,
2013-02-09 01:44:00,34.2,30.7,30.28,ENE,71,2.3,6.9,87,0.00,,,0.00,VWS V14.01,2013-02-09 07:44:00,
2013-02-09 01:59:00,34.2,30.7,30.28,ENE,65,2.3,8.1,87,0.00,,,0.00,VWS V14.01,2013-02-09 07:59:00,
2013-02-09 02:14:00,34.1,30.6,30.29,ENE,71,1.1,6.9,87,0.00,,,0.00,VWS V14.01,2013-02-09 08:14:00,
2013-02-09 02:29:00,33.8,30.4,30.28,ENE,67,1.1,4.6,87,0.00,,,0.00,VWS V14.01,2013-02-09 08:29:00,
2013-02-09 02:44:00,33.5,30.0,30.29,ENE,65,1.1,3.4,87,0.00,,,0.00,VWS V14.01,2013-02-09 08:44:00,
2013-02-09 02:59:00,33.1,29.9,30.29,East,84,0.0,2.3,88,0.00,,,0.00,VWS V14.01,2013-02-09 08:59:00,
2013-02-09 03:14:00,32.6,29.5,30.29,ENE,77,0.0,2.3,88,0.00,,,0.00,VWS V14.01,2013-02-09 09:14:00,
2013-02-09 03:29:00,31.8,28.9,30.30,ENE,77,0.0,1.1,89,0.00,,,0.00,VWS V14.01,2013-02-09 09:29:00,
2013-02-09 03:44:00,30.9,28.6,30.31,ENE,78,0.0,0.0,91,0.00,,,0.00,VWS V14.01,2013-02-09 09:44:00,
2013-02-09 03:59:00,29.8,27.5,30.31,ENE,78,0.0,0.0,91,0.00,,,0.00,VWS V14.01,2013-02-09 09:59:00,
2013-02-09 04:14:00,28.6,26.6,30.31,ENE,78,0.0,0.0,92,0.00,,,0.00,VWS V14.01,2013-02-09 10:14:00,
2013-02-09 04:29:00,28.0,26.2,30.32,ENE,78,0.0,0.0,93,0.00,,,0.00,VWS V14.01,2013-02-09 10:29:00,
2013-02-09 04:44:00,28.0,26.2,30.32,ENE,77,0.0,0.0,93,0.00,,,0.00,VWS V14.01,2013-02-09 10:44:00,
2013-02-09 04:59:00,27.5,26.0,30.32,ENE,78,0.0,0.0,94,0.00,,,0.00,VWS V14.01,2013-02-09 10:59:00,
2013-02-09 05:14:00,27.4,25.9,30.33,ENE,77,0.0,0.0,94,0.00,,,0.00,VWS V14.01,2013-02-09 11:14:00,
2013-02-09 05:29:00,27.5,26.3,30.32,ENE,77,0.0,0.0,95,0.00,,,0.00,VWS V14.01,2013-02-09 11:29:00,
2013-02-09 05:44:00,28.5,27.2,30.32,ENE,78,0.0,1.1,95,0.00,,,0.00,VWS V14.01,2013-02-09 11:44:00,
2013-02-09 05:59:00,29.1,27.9,30.32,NE,37,0.0,3.4,95,0.00,,,0.00,VWS V14.01,2013-02-09 11:59:00,
2013-02-09 06:14:00,29.6,28.1,30.32,NE,44,3.4,3.4,94,0.00,,,0.00,VWS V14.01,2013-02-09 12:14:00,
2013-02-09 06:29:00,29.8,28.0,30.32,ENE,66,2.3,3.4,93,0.00,,,0.00,VWS V14.01,2013-02-09 12:29:00,
2013-02-09 06:44:00,30.1,28.3,30.31,ENE,57,1.1,3.4,93,0.00,,,0.00,VWS V14.01,2013-02-09 12:44:00,
2013-02-09 06:59:00,30.6,28.6,30.31,NE,56,2.3,8.1,92,0.00,,,0.00,VWS V14.01,2013-02-09 12:59:00,
2013-02-09 07:14:00,31.2,28.9,30.31,East,96,3.4,8.1,91,0.00,,,0.00,VWS V14.01,2013-02-09 13:14:00,
2013-02-09 07:29:00,31.9,29.3,30.32,ENE,67,3.4,8.1,90,0.00,,,0.00,VWS V14.01,2013-02-09 13:29:00,
2013-02-09 07:44:00,32.3,29.7,30.32,ENE,70,1.1,5.8,90,0.00,,,0.00,VWS V14.01,2013-02-09 13:44:00,
2013-02-09 07:59:00,32.6,29.7,30.32,East,83,2.3,9.2,89,0.00,,,0.00,VWS V14.01,2013-02-09 13:59:00,
2013-02-09 08:14:00,33.5,30.3,30.33,ENE,65,1.1,9.2,88,0.00,,,0.00,VWS V14.01,2013-02-09 14:14:00,
2013-02-09 08:29:00,34.2,30.5,30.33,ENE,57,4.6,10.3,86,0.00,,,0.00,VWS V14.01,2013-02-09 14:29:00,
2013-02-09 08:44:00,34.8,31.0,30.33,ENE,75,3.4,9.2,86,0.00,,,0.00,VWS V14.01,2013-02-09 14:44:00,
2013-02-09 08:59:00,35.9,31.0,30.32,East,83,8.1,12.6,82,0.00,,,0.00,VWS V14.01,2013-02-09 14:59:00,
2013-02-09 09:14:00,35.9,31.2,30.31,NE,54,2.3,11.5,83,0.00,,,0.00,VWS V14.01,2013-02-09 15:14:00,
2013-02-09 09:29:00,36.2,31.2,30.31,ENE,74,3.4,11.5,82,0.00,,,0.00,VWS V14.01,2013-02-09 15:29:00,
2013-02-09 09:44:00,37.8,32.8,30.32,ENE,68,1.1,11.5,82,0.00,,,0.00,VWS V14.01,2013-02-09 15:44:00,
2013-02-09 09:59:00,38.5,32.6,30.33,NE,48,3.4,10.3,79,0.00,,,0.00,VWS V14.01,2013-02-09 15:59:00,
2013-02-09 10:14:00,39.8,32.9,30.32,ENE,68,4.6,10.3,76,0.00,,,0.00,VWS V14.01,2013-02-09 16:14:00,
2013-02-09 10:29:00,40.9,33.3,30.32,ENE,58,2.3,9.2,74,0.00,,,0.00,VWS V14.01,2013-02-09 16:29:00,
2013-02-09 10:44:00,41.9,33.9,30.31,East,91,4.6,10.3,73,0.00,,,0.00,VWS V14.01,2013-02-09 16:44:00,
2013-02-09 10:59:00,42.7,34.0,30.30,ESE,123,4.6,10.3,71,0.00,,,0.00,VWS V14.01,2013-02-09 16:59:00,
2013-02-09 11:14:00,43.7,34.2,30.29,ESE,109,1.1,9.2,69,0.00,,,0.00,VWS V14.01,2013-02-09 17:14:00,
2013-02-09 11:29:00,44.3,34.0,30.28,ENE,70,3.4,8.1,67,0.00,,,0.00,VWS V14.01,2013-02-09 17:29:00,
2013-02-09 11:44:00,45.3,34.6,30.27,ENE,76,5.8,9.2,66,0.00,,,0.00,VWS V14.01,2013-02-09 17:44:00,
2013-02-09 11:59:00,46.0,34.9,30.26,East,81,3.4,9.2,65,0.00,,,0.00,VWS V14.01,2013-02-09 17:59:00,
2013-02-09 12:14:00,46.2,34.7,30.26,ENE,78,2.3,10.3,64,0.00,,,0.00,VWS V14.01,2013-02-09 18:14:00,
2013-02-09 12:29:00,47.0,34.7,30.26,ENE,65,0.0,9.2,62,0.00,,,0.00,VWS V14.01,2013-02-09 18:29:00,
2013-02-09 12:44:00,47.8,35.4,30.25,ESE,102,1.1,8.1,62,0.00,,,0.00,VWS V14.01,2013-02-09 18:44:00,
2013-02-09 12:59:00,48.2,35.0,30.23,SSE,159,0.0,8.1,60,0.00,,,0.00,VWS V14.01,2013-02-09 18:59:00,
2013-02-09 13:14:00,48.4,35.6,30.21,NE,36,1.1,4.6,61,0.00,,,0.00,VWS V14.01,2013-02-09 19:14:00,
2013-02-09 13:29:00,49.0,35.3,30.20,ENE,70,1.1,5.8,59,0.00,,,0.00,VWS V14.01,2013-02-09 19:29:00,
2013-02-09 13:44:00,49.5,34.9,30.20,East,79,1.1,6.9,57,0.00,,,0.00,VWS V14.01,2013-02-09 19:44:00,
2013-02-09 13:59:00,49.7,35.5,30.19,NE,51,1.1,5.8,58,0.00,,,0.00,VWS V14.01,2013-02-09 19:59:00,
2013-02-09 14:14:00,49.7,36.0,30.18,ENE,64,1.1,4.6,59,0.00,,,0.00,VWS V14.01,2013-02-09 20:14:00,
2013-02-09 14:29:00,50.2,35.6,30.18,East,89,3.4,4.6,57,0.00,,,0.00,VWS V14.01,2013-02-09 20:29:00,
2013-02-09 14:44:00,50.4,36.6,30.18,ENE,57,3.4,4.6,59,0.00,,,0.00,VWS V14.01,2013-02-09 20:44:00,
2013-02-09 14:59:00,50.4,36.2,30.17,NE,47,1.1,9.2,58,0.00,,,0.00,VWS V14.01,2013-02-09 20:59:00,
2013-02-09 15:14:00,50.1,36.3,30.17,NE,51,2.3,5.8,59,0.00,,,0.00,VWS V14.01,2013-02-09 21:14:00,
2013-02-09 15:29:00,49.8,36.1,30.16,ENE,63,4.6,6.9,59,0.00,,,0.00,VWS V14.01,2013-02-09 21:29:00,
2013-02-09 15:44:00,49.7,36.4,30.16,NNE,31,4.6,5.8,60,0.00,,,0.00,VWS V14.01,2013-02-09 21:44:00,
2013-02-09 15:59:00,49.8,36.5,30.14,ENE,74,2.3,6.9,60,0.00,,,0.00,VWS V14.01,2013-02-09 21:59:00,
2013-02-09 16:14:00,49.7,36.4,30.14,East,83,0.0,6.9,60,0.00,,,0.00,VWS V14.01,2013-02-09 22:14:00,
2013-02-09 16:29:00,49.7,36.4,30.14,ENE,58,1.1,6.9,60,0.00,,,0.00,VWS V14.01,2013-02-09 22:29:00,
2013-02-09 16:44:00,49.6,36.3,30.13,ENE,76,2.3,5.8,60,0.00,,,0.00,VWS V14.01,2013-02-09 22:44:00,
2013-02-09 16:59:00,49.5,36.6,30.12,NE,51,1.1,8.1,61,0.00,,,0.00,VWS V14.01,2013-02-09 22:59:00,
2013-02-09 17:14:00,49.4,36.5,30.11,NNE,33,2.3,4.6,61,0.00,,,0.00,VWS V14.01,2013-02-09 23:14:00,
2013-02-09 17:29:00,49.2,36.8,30.12,ENE,69,1.1,5.8,62,0.00,,,0.00,VWS V14.01,2013-02-09 23:29:00,
2013-02-09 17:44:00,49.0,36.6,30.11,ENE,71,4.6,4.6,62,0.00,,,0.00,VWS V14.01,2013-02-09 23:44:00,
2013-02-09 17:59:00,49.0,37.0,30.12,ENE,68,1.1,5.8,63,0.00,,,0.00,VWS V14.01,2013-02-09 23:59:00,
2013-02-09 18:14:00,49.1,36.7,30.11,ENE,74,1.1,5.8,62,0.00,,,0.00,VWS V14.01,2013-02-10 00:14:00,
2013-02-09 18:29:00,49.0,37.0,30.11,ENE,64,0.0,4.6,63,0.00,,,0.00,VWS V14.01,2013-02-10 00:29:00,
2013-02-09 18:44:00,48.6,36.6,30.11,ENE,61,0.0,1.1,63,0.00,,,0.00,VWS V14.01,2013-02-10 00:44:00,
2013-02-09 18:59:00,47.9,36.3,30.12,ENE,61,0.0,0.0,64,0.00,,,0.00,VWS V14.01,2013-02-10 00:59:00,
2013-02-09 19:14:00,46.6,36.2,30.11,ENE,61,0.0,0.0,67,0.00,,,0.00,VWS V14.01,2013-02-10 01:14:00,
2013-02-09 19:29:00,45.6,36.8,30.11,ENE,61,0.0,0.0,71,0.00,,,0.00,VWS V14.01,2013-02-10 01:29:00,
2013-02-09 19:44:00,45.1,37.0,30.10,ENE,61,0.0,0.0,73,0.00,,,0.00,VWS V14.01,2013-02-10 01:44:00,
2013-02-09 19:59:00,45.8,36.6,30.10,East,101,0.0,3.4,70,0.00,,,0.00,VWS V14.01,2013-02-10 01:59:00,
2013-02-09 20:14:00,48.0,36.4,30.10,SE,146,2.3,3.4,64,0.00,,,0.00,VWS V14.01,2013-02-10 02:14:00,
2013-02-09 20:29:00,48.7,36.3,30.10,East,96,1.1,4.6,62,0.00,,,0.00,VWS V14.01,2013-02-10 02:29:00,
2013-02-09 20:44:00,48.9,36.1,30.09,ESE,115,4.6,5.8,61,0.00,,,0.00,VWS V14.01,2013-02-10 02:44:00,
2013-02-09 20:59:00,49.2,36.3,30.09,ESE,118,2.3,8.1,61,0.00,,,0.00,VWS V14.01,2013-02-10 02:59:00,
2013-02-09 21:14:00,49.8,36.1,30.10,East,94,3.4,10.3,59,0.00,,,0.00,VWS V14.01,2013-02-10 03:14:00,
2013-02-09 21:29:00,49.9,36.2,30.09,ESE,122,3.4,8.1,59,0.00,,,0.00,VWS V14.01,2013-02-10 03:29:00,
2013-02-09 21:44:00,49.8,37.3,30.09,SSE,155,4.6,6.9,62,0.00,,,0.00,VWS V14.01,2013-02-10 03:44:00,
2013-02-09 21:59:00,49.0,38.2,30.09,East,90,4.6,8.1,66,0.00,,,0.00,VWS V14.01,2013-02-10 03:59:00,
2013-02-09 22:14:00,49.2,38.0,30.08,ESE,104,3.4,10.3,65,0.00,,,0.00,VWS V14.01,2013-02-10 04:14:00,
2013-02-09 22:29:00,49.5,38.2,30.08,East,89,5.8,8.1,65,0.00,,,0.00,VWS V14.01,2013-02-10 04:29:00,
2013-02-09 22:44:00,49.1,39.4,30.07,South,191,1.1,9.2,69,0.01,,,0.01,VWS V14.01,2013-02-10 04:44:00,
2013-02-09 22:59:00,48.8,39.1,30.05,NNE,30,2.3,10.3,69,0.01,,,0.01,VWS V14.01,2013-02-10 04:59:00,
2013-02-09 23:14:00,49.1,38.6,30.06,ESE,104,4.6,8.1,67,0.01,,,0.01,VWS V14.01,2013-02-10 05:14:00,
2013-02-09 23:29:00,49.9,38.2,30.06,SE,129,4.6,8.1,64,0.01,,,0.01,VWS V14.01,2013-02-10 05:29:00,
2013-02-09 23:44:00,50.6,38.5,30.06,SE,134,2.3,10.3,63,0.01,,,0.01,VWS V14.01,2013-02-10 05:44:00,
2013-02-09 23:59:00,51.0,38.0,30.05,SE,125,6.9,13.8,61,0.00,,,0.00,VWS V14.01,2013-02-10 05:59:00,